Salzburg Flughafen, Austria

1:34 PM CEST on June 27, 2017 (GMT +0200)
Salzburg Flughafen

Weather History for LOWS - June, 2013

Change the Weather History Date:

Saturday, June 29, 2013

  Actual Average Record
Temperature  
Mean Temperature 56 °F -  
Max Temperature 65 °F 72 °F 88 °F (2012)
Min Temperature 47 °F 54 °F 47 °F (2013)
Degree Days  
Heating Degree Days 9    
Growing Degree Days 6 (Base 50)    
Moisture  
Dew Point 49 °F    
Average Humidity 79    
Maximum Humidity 100    
Minimum Humidity 45    
Precipitation  
Precipitation 0.28 in 0.21 in - ()
Sea Level Pressure  
Sea Level Pressure 30.13 in    
Wind  
Wind Speed 7 mph ()    
Max Wind Speed 14 mph    
Max Gust Speed -    
Visibility 6.4 miles    
Events Rain    
Averages and records for this station are not official NWS values.
T = Trace of Precipitation, MM = Missing Value Source: Averaged Metar Reports

Daily Weather History Graph

Daily Weather History Graph

Search for Another Location

Airport or City:

Trip Planner

Search our weather history database for the weather conditions in past years. The results will help you decide how hot, cold, wet, or windy it might be!

Date:

Astronomy

Jun. 29, 2013 Rise Set
Actual Time 5:12 AM CEST 9:10 PM CEST
Civil Twilight 4:31 AM CEST 9:51 PM CEST
Nautical Twilight 3:35 AM CEST 10:47 PM CEST
Astronomical Twilight 2:03 AM CEST 12:17 AM CEST
Moon 12:00 AM CEST (6/29) 12:38 PM CEST (6/29)
Length of Visible Light 17h 19m
Length of Day
15h 58m
Waning Gibbous, 58% of the Moon is Illuminated
Jun 29
Waning Gibbous
Jun 30
Last Quarter
Jul 8
New
Jul 16
First Quarter
Jul 22
Full

Hourly Weather History & Observations

Time (CEST) Temp. Dew Point Humidity Pressure Visibility Wind Dir Wind Speed Gust Speed Precip Events Conditions
12:20 AM 50.0 °F 46.4 °F 87% 30.18 in 6.2 mi SSE 8.1 mph - N/A   Unknown
12:50 AM 50.0 °F 48.2 °F 94% 30.18 in 6.2 mi SSE 8.1 mph - N/A   Unknown
1:20 AM 50.0 °F 46.4 °F 87% 30.18 in 6.2 mi SSE 9.2 mph - N/A   Unknown
1:50 AM 50.0 °F 46.4 °F 87% 30.18 in 6.2 mi SSE 9.2 mph - N/A   Scattered Clouds
2:00 AM 50 °F 47 °F 84% 30.20 in 28 mi SSE 8.9 mph - -  
2:20 AM 50.0 °F 46.4 °F 87% 30.18 in 6.2 mi SSE 8.1 mph - N/A   Mostly Cloudy
2:50 AM 50.0 °F 46.4 °F 87% 30.18 in 6.2 mi SSE 9.2 mph - N/A   Mostly Cloudy
3:20 AM 50.0 °F 46.4 °F 87% 30.18 in 6.2 mi SSE 6.9 mph - N/A   Overcast
3:50 AM 50.0 °F 46.4 °F 87% 30.15 in 6.2 mi SSE 9.2 mph - N/A   Mostly Cloudy
4:20 AM 48.2 °F 44.6 °F 87% 30.15 in 6.2 mi SSE 10.4 mph - N/A   Mostly Cloudy
4:50 AM 48.2 °F 44.6 °F 87% 30.15 in 6.2 mi SSE 9.2 mph - N/A   Partly Cloudy
5:00 AM 48 °F 45 °F 84% 30.19 in 19 mi SSE 8.9 mph - -   Scattered Clouds
5:20 AM 48.2 °F 44.6 °F 87% 30.15 in 6.2 mi South 10.4 mph - N/A   Scattered Clouds
5:50 AM 48.2 °F 46.4 °F 93% 30.15 in 6.2 mi SSE 6.9 mph - N/A   Mostly Cloudy
6:20 AM 50.0 °F 46.4 °F 87% 30.15 in 6.2 mi SSE 8.1 mph - N/A   Mostly Cloudy
6:50 AM 51.8 °F 46.4 °F 82% 30.15 in 6.2 mi SSE 9.2 mph - N/A   Mostly Cloudy
7:20 AM 51.8 °F 46.4 °F 82% 30.15 in 6.2 mi SSE 9.2 mph - N/A   Mostly Cloudy
7:50 AM 53.6 °F 46.4 °F 77% 30.15 in 6.2 mi SSE 10.4 mph - N/A   Mostly Cloudy
8:00 AM 53 °F 47 °F 73% 30.17 in 22 mi SSE 11.2 mph - -   Scattered Clouds
8:20 AM 53.6 °F 46.4 °F 77% 30.15 in 6.2 mi SSE 9.2 mph - N/A   Mostly Cloudy
8:50 AM 55.4 °F 48.2 °F 77% 30.15 in 6.2 mi SSE 8.1 mph - N/A   Mostly Cloudy
9:20 AM 57.2 °F 48.2 °F 72% 30.15 in 6.2 mi SSE 8.1 mph - N/A   Mostly Cloudy
9:50 AM 59.0 °F 46.4 °F 63% 30.15 in 6.2 mi SSE 6.9 mph - N/A   Mostly Cloudy
10:20 AM 60.8 °F 48.2 °F 63% 30.12 in 6.2 mi South 6.9 mph - N/A   Mostly Cloudy
10:50 AM 60.8 °F 48.2 °F 63% 30.12 in 6.2 mi South 6.9 mph - N/A   Mostly Cloudy
11:00 AM 61 °F 48 °F 52% 30.13 in 22 mi South 6.7 mph - -   Scattered Clouds
11:20 AM 60.8 °F 48.2 °F 63% 30.12 in 6.2 mi South 5.8 mph - N/A   Mostly Cloudy
11:50 AM 62.6 °F 48.2 °F 59% 30.12 in 6.2 mi South 4.6 mph - N/A   Mostly Cloudy
12:20 PM 64.4 °F 50.0 °F 59% 30.09 in 6.2 mi Variable 3.5 mph - N/A   Mostly Cloudy
12:50 PM 62.6 °F 46.4 °F 55% 30.09 in 6.2 mi WNW 5.8 mph - N/A   Mostly Cloudy
1:20 PM 64.4 °F 48.2 °F 56% 30.09 in 6.2 mi Variable 2.3 mph - N/A   Mostly Cloudy
1:50 PM 64.4 °F 48.2 °F 56% 30.06 in 6.2 mi WNW 10.4 mph - N/A   Mostly Cloudy
2:00 PM 64 °F 48 °F 45% 30.06 in 22 mi WNW 11.2 mph - -   Scattered Clouds
2:20 PM 64.4 °F 48.2 °F 56% 30.09 in 6.2 mi WNW 13.8 mph - N/A   Mostly Cloudy
2:50 PM 62.6 °F 48.2 °F 59% 30.06 in 6.2 mi NW 13.8 mph - N/A   Mostly Cloudy
3:20 PM 62.6 °F 48.2 °F 59% 30.06 in 6.2 mi NNW 12.7 mph - N/A Rain Light Rain
3:50 PM 59.0 °F 50.0 °F 72% 30.09 in 6.2 mi NNW 11.5 mph - N/A Rain Light Rain
4:20 PM 59.0 °F 50.0 °F 72% 30.09 in 6.2 mi NNW 10.4 mph - N/A Rain Light Rain
4:50 PM 57.2 °F 51.8 °F 82% 30.09 in 6.2 mi North 4.6 mph - N/A Rain Light Rain
5:00 PM 57 °F 52 °F 79% 30.09 in 12 mi North 4.5 mph - - Rain Light Rain
5:20 PM 57.2 °F 51.8 °F 82% 30.09 in 6.2 mi North 4.6 mph - N/A Rain Rain
5:50 PM 55.4 °F 51.8 °F 88% 30.09 in 6.2 mi North 3.5 mph - N/A Rain Rain
6:20 PM 55.4 °F 51.8 °F 88% 30.09 in 6.2 mi Variable 2.3 mph - N/A Rain Rain
6:50 PM 55.4 °F 53.6 °F 94% 30.09 in 4.3 mi Variable 1.2 mph - N/A Rain Rain
7:20 PM 55.4 °F 53.6 °F 94% 30.09 in 2.8 mi SSE 3.5 mph - N/A Rain Rain
7:50 PM 53.6 °F 53.6 °F 100% 30.09 in 2.8 mi SE 3.5 mph - N/A Rain Rain
8:00 PM 54 °F 53 °F 97% 30.12 in 3 mi SE 4.5 mph - - Rain Rain
8:20 PM 53.6 °F 51.8 °F 94% 30.09 in 5.0 mi SSE 5.8 mph - N/A Rain Rain
8:50 PM 55.4 °F 53.6 °F 94% 30.12 in 6.2 mi South 8.1 mph - N/A Rain Light Rain
9:20 PM 55.4 °F 53.6 °F 94% 30.12 in 6.2 mi South 8.1 mph - N/A Rain Light Rain
9:50 PM 55.4 °F 53.6 °F 94% 30.12 in 6.2 mi SSW 6.9 mph - N/A   Mostly Cloudy
10:20 PM 55.4 °F 53.6 °F 94% 30.12 in 6.2 mi SSW 4.6 mph - N/A   Mostly Cloudy
10:50 PM 57.2 °F 51.8 °F 82% 30.15 in 6.2 mi SSW 6.9 mph - N/A   Mostly Cloudy
11:00 PM 56 °F 53 °F 84% 30.14 in 12 mi SSW 6.7 mph - -   Partly Cloudy
11:20 PM 57.2 °F 51.8 °F 82% 30.15 in 6.2 mi SW 5.8 mph - N/A Rain Light Rain Showers
11:50 PM 57.2 °F 53.6 °F 88% 30.15 in 6.2 mi SW 4.6 mph - N/A   Mostly Cloudy